Simultaneous Nadir Overpasses (SNOs) Predictions

Prediction of SNOs between NOAA-20 and METOP-C Satellite Orbit:

Table of predicted SNOs for the next 14.0 days since TLE Epoch: 10/2/2020
Index Date (NOAA-20) Time (NOAA-20) Lat,Lon (NOAA-20) SZA (NOAA-20 ) Date (METOP-C) Time (METOP-C) Lat,Lon (METOP-C) SZA (METOP-C ) Distance(km) Time Diff (sec)
1 10/14/2020 20:11:13 73.47,-132.62 82.03 10/14/2020 20:12:18 73.43,-129.57 81.91 96.67 65
2 10/14/2020 21:01:56 -73.41, 34.84 98.03 10/14/2020 21:03:03 -73.32, 37.51 98.19 85.42 67
3 10/14/2020 21:52:36 73.12,-157.22 81.68 10/14/2020 21:53:46 73.10,-155.63 81.62 51.33 70
4 10/14/2020 22:43:20 -73.11, 10.13 98.32 10/14/2020 22:44:30 -73.05, 11.57 98.43 47.21 70
5 10/14/2020 23:34:01 72.87, 177.94 81.45 10/14/2020 23:35:14 72.77, 178.33 81.33 16.98 73
6 10/15/2020 00:24:44 -72.81, -14.61 98.61 10/15/2020 00:25:57 -72.77, -14.35 98.67 9.62 73
7 10/15/2020 01:15:28 72.72, 152.88 81.32 10/15/2020 01:16:37 72.70, 152.84 81.29 2.96 69
8 10/15/2020 02:06:12 -72.71, -39.78 98.69 10/15/2020 02:07:20 -72.70, -39.85 98.71 2.90 68
9 10/15/2020 02:56:58 72.73, 127.50 81.34 10/15/2020 02:57:58 72.73, 127.56 81.34 1.97 60
10 10/15/2020 03:47:42 -72.72, -65.16 98.66 10/15/2020 03:48:41 -72.72, -65.13 98.66 1.27 59
11 10/15/2020 04:38:27 72.68, 102.22 81.32 10/15/2020 04:39:20 72.70, 102.17 81.34 3.23 53
12 10/15/2020 05:29:12 -72.72, -90.54 98.63 10/15/2020 05:30:03 -72.70, -90.52 98.66 2.28 51
13 10/15/2020 06:19:57 72.68, 76.84 81.35 10/15/2020 06:20:42 72.68, 76.78 81.34 2.06 45
14 10/15/2020 07:10:41 -72.67,-115.82 98.66 10/15/2020 07:11:25 -72.67,-115.91 98.65 3.03 44
15 10/15/2020 08:01:27 72.68, 51.46 81.38 10/15/2020 08:02:03 72.71, 51.50 81.40 2.70 36
16 10/15/2020 08:52:10 -72.67,-141.20 98.63 10/15/2020 08:52:45 -72.70,-141.19 98.60 3.24 35
17 10/15/2020 09:42:56 72.69, 26.08 81.41 10/15/2020 09:43:24 72.68, 26.11 81.40 1.02 28
18 10/15/2020 10:33:40 -72.68,-166.58 98.60 10/15/2020 10:34:07 -72.68,-166.58 98.60 0.30 27
19 10/15/2020 11:24:26 72.69, 0.70 81.44 10/15/2020 11:24:46 72.66, 0.72 81.40 3.53 20
20 10/15/2020 12:15:10 -72.68, 168.04 98.57 10/15/2020 12:15:29 -72.65, 168.03 98.60 2.67 19
21 10/15/2020 13:05:55 72.64, -24.58 81.41 10/15/2020 13:06:08 72.64, -24.67 81.40 3.21 13
22 10/15/2020 13:56:40 -72.68, 142.66 98.54 10/15/2020 13:56:50 -72.68, 142.75 98.54 2.82 10
23 10/15/2020 14:47:25 72.65, -49.96 81.44 10/15/2020 14:47:29 72.66, -49.95 81.46 1.92 4
24 10/15/2020 15:38:09 -72.63, 117.38 98.57 10/15/2020 15:38:12 -72.66, 117.36 98.54 2.88 3
25 10/15/2020 16:28:55 72.65, -75.34 81.47 10/15/2020 16:28:51 72.64, -75.34 81.46 1.07 4
26 10/15/2020 17:19:39 -72.64, 92.00 98.54 10/15/2020 17:19:34 -72.63, 91.97 98.54 1.16 5
27 10/15/2020 18:10:25 72.65,-100.72 81.50 10/15/2020 18:10:12 72.67,-100.63 81.51 3.42 13
28 10/15/2020 19:01:09 -72.64, 66.62 98.51 10/15/2020 19:00:55 -72.66, 66.69 98.49 3.22 14
29 10/15/2020 19:51:55 72.65,-126.10 81.53 10/15/2020 19:51:34 72.64,-126.02 81.51 3.02 21
30 10/15/2020 20:42:39 -72.64, 41.24 98.48 10/15/2020 20:42:17 -72.64, 41.30 98.48 1.82 22
31 10/15/2020 21:33:24 72.61,-151.37 81.50 10/15/2020 21:32:56 72.62,-151.40 81.52 1.70 28
32 10/15/2020 22:24:08 -72.59, 15.97 98.50 10/15/2020 22:23:39 -72.61, 15.91 98.48 2.96 29
33 10/15/2020 23:14:54 72.61,-176.75 81.53 10/15/2020 23:14:18 72.59,-176.79 81.52 2.01 36
34 10/16/2020 00:05:38 -72.60, -9.41 98.48 10/16/2020 00:05:01 -72.59, -9.48 98.48 2.29 37
35 10/16/2020 00:56:24 72.61, 157.87 81.56 10/16/2020 00:55:39 72.62, 157.92 81.57 2.24 45
36 10/16/2020 01:47:08 -72.60, -34.79 98.45 10/16/2020 01:46:22 -72.62, -34.76 98.43 2.24 46
37 10/16/2020 02:37:54 72.61, 132.49 81.59 10/16/2020 02:37:01 72.60, 132.54 81.57 2.50 53
38 10/16/2020 03:28:38 -72.60, -60.17 98.42 10/16/2020 03:27:44 -72.59, -60.15 98.42 1.19 54
39 10/16/2020 04:19:23 72.57, 107.21 81.56 10/16/2020 04:18:23 72.57, 107.15 81.58 2.18 60
40 10/16/2020 05:10:07 -72.55, -85.45 98.44 10/16/2020 05:09:06 -72.57, -85.54 98.42 3.43 61
41 10/16/2020 06:00:53 72.57, 81.83 81.59 10/16/2020 05:59:45 72.55, 81.76 81.58 3.11 68
42 10/16/2020 06:51:37 -72.56,-110.83 98.41 10/16/2020 06:50:28 -72.55,-110.93 98.42 3.42 69
43 10/16/2020 07:42:21 72.47, 56.65 81.51 10/16/2020 07:41:08 72.47, 56.27 81.53 12.84 73
44 10/16/2020 08:33:05 -72.46,-136.01 98.49 10/16/2020 08:31:51 -72.47,-136.42 98.46 13.80 74
45 10/16/2020 09:23:46 72.22, 31.78 81.28 10/16/2020 09:22:35 72.19, 30.38 81.29 47.52 71
46 10/16/2020 10:14:29 -72.15,-160.79 98.78 10/16/2020 10:13:19 -72.14,-162.40 98.75 55.08 70
47 10/16/2020 11:05:09 71.86, 7.08 80.93 10/16/2020 11:04:03 71.86, 4.41 81.00 92.41 66
48 10/16/2020 11:55:53 -71.85, 174.41 99.07 10/16/2020 11:54:46 -71.86, 171.73 98.99 92.99 67
